HAIYANG 2A

Last updated on Mon Sep 14 2020 05:43:38 GMT+0000 (Coordinated Universal Time)

1 37781U 11043A 20257.85326929 -.00000018 00000-0 25234-4 0 9995 2 37781 99.3180 263.9449 0001637 98.8466 261.2871 13.78720661456972

Satellite not in orbit

HAIYANG 2A